Location: Kelshall
(52.0000°N, 0.0500°W)
Time: 03:10:22
(UTC+00:00)

ATLAS CENTAUR R/B - Pass Details

Date: 23 January 2021
Orbit: 475 x 670 km, 64.7° (Epoch: 06 March)

Event Time Altitude Azimuth Distance (km) Brightness Sun altitude
Rises 05:54:08 0° 197° (SSW) 2,538 4.6 -17.9°
Reaches altitude 10° 05:56:24 10° 187° (S) 1,650 3.8 -17.5°
Maximum altitude 05:59:42 33° 123° (ESE) 822 2.8 -17.0°
Drops below altitude 10° 06:03:01 10° 58° (ENE) 1,655 4.4 -16.5°
Sets 06:05:17 0° 48° (NE) 2,547 5.3 -16.2°
